Time,TemperatureF,DewpointF,PressureIn,WindDirection,WindDirectionDegrees,WindSpeedMPH,WindSpeedGustMPH,Humidity,HourlyPrecipIn,Conditions,Clouds,dailyrainin,SoftwareType,DateUTC
2013-07-01 00:00:00,59.9,54.1,30.08,NW,315,1.6,4.6,81,0.00,CLR,SKC,0.00,WeatherDisplay:10.37,2013-06-30 23:00:00,
2013-07-01 00:05:00,59.9,54.1,30.08,NW,315,1.6,4.6,81,0.00,CLR,SKC,0.00,WeatherDisplay:10.37,2013-06-30 23:05:00,
2013-07-01 00:10:00,59.7,53.9,30.07,East,90,0.7,3.5,81,0.00,CLR,SKC,0.00,WeatherDisplay:10.37,2013-06-30 23:10:00,
2013-07-01 00:15:00,59.7,53.9,30.07,NW,315,2.2,5.8,81,0.00,CLR,SKC,0.00,WeatherDisplay:10.37,2013-06-30 23:15:00,
2013-07-01 00:20:00,59.5,53.7,30.07,NW,315,0.7,5.8,81,0.00,CLR,SKC,0.00,WeatherDisplay:10.37,2013-06-30 23:20:00,
2013-07-01 00:25:00,59.5,53.7,30.07,NW,315,0.7,5.8,81,0.00,CLR,SKC,0.00,WeatherDisplay:10.37,2013-06-30 23:25:00,
2013-07-01 00:30:00,59.4,53.5,30.07,North,0,3.1,5.4,81,0.00,CLR,SKC,0.00,WeatherDisplay:10.37,2013-06-30 23:30:00,
2013-07-01 00:35:00,59.4,53.5,30.07,North,0,3.1,5.4,81,0.00,CLR,SKC,0.00,WeatherDisplay:10.37,2013-06-30 23:35:00,
2013-07-01 00:40:00,59.4,53.5,30.07,NW,315,1.6,3.5,81,0.00,CLR,SKC,0.00,WeatherDisplay:10.37,2013-06-30 23:40:00,
2013-07-01 00:45:00,59.4,53.5,30.07,NW,315,1.6,3.5,81,0.00,CLR,SKC,0.00,WeatherDisplay:10.37,2013-06-30 23:45:00,
2013-07-01 00:50:00,59.2,53.7,30.07,NW,315,3.1,6.9,82,0.00,CLR,SKC,0.00,WeatherDisplay:10.37,2013-06-30 23:50:00,
2013-07-01 00:55:00,59.2,53.7,30.07,NW,315,3.1,6.9,82,0.00,CLR,SKC,0.00,WeatherDisplay:10.37,2013-06-30 23:55:00,
2013-07-01 01:00:00,59.0,53.5,30.07,North,0,1.6,5.8,82,0.00,CLR,SKC,0.00,WeatherDisplay:10.37,2013-07-01 00:00:00,
2013-07-01 01:32:00,58.6,53.8,30.06,North,0,2.2,9.2,84,0.00,CLR,SKC,0.00,WeatherDisplay:10.37,2013-07-01 00:32:00,
2013-07-01 01:37:00,58.6,53.8,30.05,NNW,338,3.8,6.0,84,0.00,CLR,SKC,0.00,WeatherDisplay:10.37,2013-07-01 00:37:00,
2013-07-01 01:42:00,58.8,53.7,30.05,NNW,338,1.6,5.8,83,0.00,CLR,SKC,0.00,WeatherDisplay:10.37,2013-07-01 00:42:00,
2013-07-01 01:47:00,58.8,53.7,30.05,NNW,338,1.6,5.8,83,0.00,CLR,SKC,0.00,WeatherDisplay:10.37,2013-07-01 00:47:00,
2013-07-01 01:52:00,58.8,53.7,30.05,ENE,68,1.6,3.8,83,0.00,CLR,SKC,0.00,WeatherDisplay:10.37,2013-07-01 00:52:00,
2013-07-01 01:57:00,58.8,53.7,30.05,ENE,68,1.6,3.8,83,0.00,CLR,SKC,0.00,WeatherDisplay:10.37,2013-07-01 00:57:00,
2013-07-01 02:02:00,58.8,54.0,30.05,NW,315,0.0,3.5,84,0.00,CLR,SKC,0.00,WeatherDisplay:10.37,2013-07-01 01:02:00,
2013-07-01 02:07:00,58.8,54.0,30.05,SE,135,0.7,3.5,84,0.00,CLR,SKC,0.00,WeatherDisplay:10.37,2013-07-01 01:07:00,
2013-07-01 02:12:00,58.8,54.0,30.05,WNW,292,0.0,2.3,84,0.00,CLR,SKC,0.00,WeatherDisplay:10.37,2013-07-01 01:12:00,
2013-07-01 02:17:00,58.8,54.0,30.05,NW,315,0.7,3.5,84,0.00,CLR,SKC,0.00,WeatherDisplay:10.37,2013-07-01 01:17:00,
2013-07-01 02:22:00,58.8,54.0,30.05,South,180,0.0,3.5,84,0.00,CLR,SKC,0.00,WeatherDisplay:10.37,2013-07-01 01:22:00,
2013-07-01 02:27:00,58.8,54.0,30.05,South,180,0.0,3.5,84,0.00,CLR,SKC,0.00,WeatherDisplay:10.37,2013-07-01 01:27:00,
2013-07-01 02:32:00,59.0,54.2,30.04,NNE,22,0.7,3.1,84,0.00,CLR,SKC,0.00,WeatherDisplay:10.37,2013-07-01 01:32:00,
2013-07-01 02:37:00,59.0,54.2,30.04,NNE,22,0.7,3.1,84,0.00,CLR,SKC,0.00,WeatherDisplay:10.37,2013-07-01 01:37:00,
2013-07-01 02:42:00,59.0,54.2,30.04,West,270,1.6,3.1,84,0.00,CLR,SKC,0.00,WeatherDisplay:10.37,2013-07-01 01:42:00,
2013-07-01 02:47:00,59.0,54.2,30.04,NW,315,1.6,4.6,84,0.00,CLR,SKC,0.00,WeatherDisplay:10.37,2013-07-01 01:47:00,
2013-07-01 02:52:00,59.2,54.3,30.04,SE,135,0.0,1.6,84,0.00,CLR,SKC,0.00,WeatherDisplay:10.37,2013-07-01 01:52:00,
2013-07-01 02:57:00,59.2,54.3,30.03,East,90,0.0,3.1,84,0.00,CLR,SKC,0.00,WeatherDisplay:10.37,2013-07-01 01:57:00,
2013-07-01 03:02:00,59.2,54.3,30.03,East,90,0.0,3.5,84,0.00,CLR,SKC,0.00,WeatherDisplay:10.37,2013-07-01 02:02:00,
2013-07-01 03:07:00,59.2,54.3,30.03,East,90,0.0,3.5,84,0.00,CLR,SKC,0.00,WeatherDisplay:10.37,2013-07-01 02:07:00,
2013-07-01 03:12:00,59.4,54.5,30.03,East,90,0.7,2.3,84,0.00,CLR,SKC,0.00,WeatherDisplay:10.37,2013-07-01 02:12:00,
2013-07-01 03:17:00,59.4,54.5,30.03,North,0,1.6,3.8,84,0.00,CLR,SKC,0.00,WeatherDisplay:10.37,2013-07-01 02:17:00,
2013-07-01 03:22:00,59.4,54.5,30.03,NNW,338,2.2,6.9,84,0.00,CLR,SKC,0.00,WeatherDisplay:10.37,2013-07-01 02:22:00,
2013-07-01 03:27:00,59.4,54.8,30.03,WNW,292,0.7,5.8,85,0.00,CLR,SKC,0.00,WeatherDisplay:10.37,2013-07-01 02:27:00,
2013-07-01 03:32:00,59.4,54.8,30.03,NNW,338,1.6,4.6,85,0.00,CLR,SKC,0.00,WeatherDisplay:10.37,2013-07-01 02:32:00,
2013-07-01 03:37:00,59.5,55.0,30.03,NNW,338,0.7,3.5,85,0.00,CLR,SKC,0.00,WeatherDisplay:10.37,2013-07-01 02:37:00,
2013-07-01 03:42:00,59.5,55.0,30.03,WNW,292,2.2,5.8,85,0.00,CLR,SKC,0.00,WeatherDisplay:10.37,2013-07-01 02:42:00,
2013-07-01 03:47:00,59.5,55.0,30.03,NE,45,0.7,5.8,85,0.00,CLR,SKC,0.00,WeatherDisplay:10.37,2013-07-01 02:47:00,
2013-07-01 03:52:00,59.5,55.0,30.03,North,0,1.6,6.0,85,0.00,CLR,SKC,0.00,WeatherDisplay:10.37,2013-07-01 02:52:00,
2013-07-01 03:58:00,59.5,55.0,30.03,NE,45,3.1,6.0,85,0.00,CLR,SKC,0.00,WeatherDisplay:10.37,2013-07-01 02:58:00,
2013-07-01 04:03:00,59.5,55.0,30.03,North,0,3.1,5.4,85,0.00,CLR,SKC,0.00,WeatherDisplay:10.37,2013-07-01 03:03:00,
2013-07-01 04:08:00,59.2,55.6,30.03,NW,315,2.2,8.1,88,0.00,CLR,SKC,0.00,WeatherDisplay:10.37,2013-07-01 03:08:00,
2013-07-01 04:13:00,59.0,55.4,30.03,East,90,1.6,8.1,88,0.00,CLR,SKC,0.00,WeatherDisplay:10.37,2013-07-01 03:13:00,
2013-07-01 04:18:00,58.8,55.6,30.03,North,0,0.7,8.1,89,0.00,CLR,SKC,0.00,WeatherDisplay:10.37,2013-07-01 03:18:00,
2013-07-01 04:23:00,58.8,55.3,30.03,NW,315,0.7,2.2,88,0.00,CLR,SKC,0.00,WeatherDisplay:10.37,2013-07-01 03:23:00,
2013-07-01 04:28:00,58.8,55.3,30.03,North,0,0.7,3.5,88,0.00,CLR,SKC,0.00,WeatherDisplay:10.37,2013-07-01 03:28:00,
2013-07-01 04:33:00,58.6,55.4,30.03,NW,315,2.2,6.9,89,0.00,CLR,SKC,0.00,WeatherDisplay:10.37,2013-07-01 03:33:00,
2013-07-01 04:38:00,58.5,55.2,30.03,North,0,1.6,6.9,89,0.00,CLR,SKC,0.00,WeatherDisplay:10.37,2013-07-01 03:38:00,
2013-07-01 04:43:00,58.3,55.1,30.03,West,270,0.0,2.3,89,0.00,CLR,SKC,0.00,WeatherDisplay:10.37,2013-07-01 03:43:00,
2013-07-01 04:48:00,58.3,55.1,30.03,NW,315,0.7,2.3,89,0.00,CLR,SKC,0.00,WeatherDisplay:10.37,2013-07-01 03:48:00,
2013-07-01 04:53:00,58.1,54.6,30.03,WNW,292,0.0,1.1,88,0.00,CLR,SKC,0.00,WeatherDisplay:10.37,2013-07-01 03:53:00,
2013-07-01 04:58:00,58.1,54.2,30.03,North,0,0.0,4.6,87,0.00,CLR,SKC,0.00,WeatherDisplay:10.37,2013-07-01 03:58:00,
2013-07-01 05:01:00,58.1,54.6,30.03,SE,135,0.7,3.5,88,0.00,CLR,SKC,0.00,WeatherDisplay:10.37,2013-07-01 04:01:00,
2013-07-01 05:06:00,58.1,54.6,30.03,SE,135,0.7,3.5,88,0.00,CLR,SKC,0.00,WeatherDisplay:10.37,2013-07-01 04:06:00,
2013-07-01 05:11:00,58.1,54.6,30.03,NW,315,1.6,3.8,88,0.00,CLR,SKC,0.00,WeatherDisplay:10.37,2013-07-01 04:11:00,
2013-07-01 05:16:00,58.1,54.6,30.03,NW,315,1.6,3.8,88,0.00,CLR,SKC,0.00,WeatherDisplay:10.37,2013-07-01 04:16:00,
2013-07-01 05:21:00,57.9,54.4,30.03,NW,315,1.6,6.0,88,0.00,CLR,SKC,0.00,WeatherDisplay:10.37,2013-07-01 04:21:00,
2013-07-01 05:26:00,57.9,54.4,30.03,NW,315,1.6,6.0,88,0.00,CLR,SKC,0.00,WeatherDisplay:10.37,2013-07-01 04:26:00,
2013-07-01 05:31:00,57.9,54.7,30.03,WSW,248,0.7,3.5,89,0.00,CLR,SKC,0.00,WeatherDisplay:10.37,2013-07-01 04:31:00,
2013-07-01 05:36:00,57.9,54.7,30.03,WSW,248,0.7,3.5,89,0.00,CLR,SKC,0.00,WeatherDisplay:10.37,2013-07-01 04:36:00,
2013-07-01 05:41:00,57.7,54.5,30.03,NW,315,0.7,5.8,89,0.00,CLR,SKC,0.00,WeatherDisplay:10.37,2013-07-01 04:41:00,
2013-07-01 05:46:00,57.7,54.5,30.03,NW,315,0.7,5.8,89,0.00,CLR,SKC,0.00,WeatherDisplay:10.37,2013-07-01 04:46:00,
2013-07-01 05:51:00,57.7,54.5,30.04,WSW,248,0.0,6.9,89,0.00,CLR,SKC,0.00,WeatherDisplay:10.37,2013-07-01 04:51:00,
2013-07-01 05:56:00,57.7,54.5,30.04,WSW,248,0.0,6.9,89,0.00,CLR,SKC,0.00,WeatherDisplay:10.37,2013-07-01 04:56:00,
2013-07-01 06:01:00,57.6,54.0,30.03,NW,315,0.7,3.5,88,0.00,CLR,SKC,0.00,WeatherDisplay:10.37,2013-07-01 05:01:00,
2013-07-01 06:06:00,57.6,54.0,30.03,NW,315,0.7,3.5,88,0.00,CLR,SKC,0.00,WeatherDisplay:10.37,2013-07-01 05:06:00,
2013-07-01 06:11:00,57.6,53.7,30.03,NW,315,1.6,4.5,87,0.00,CLR,SKC,0.00,WeatherDisplay:10.37,2013-07-01 05:11:00,
2013-07-01 06:16:00,57.6,53.7,30.03,NW,315,1.6,4.5,87,0.00,CLR,SKC,0.00,WeatherDisplay:10.37,2013-07-01 05:16:00,
2013-07-01 06:21:00,57.6,53.4,30.04,North,0,1.6,3.5,86,0.00,CLR,SKC,0.00,WeatherDisplay:10.37,2013-07-01 05:21:00,
2013-07-01 06:27:00,57.6,53.4,30.04,North,0,1.6,3.5,86,0.00,CLR,SKC,0.00,WeatherDisplay:10.37,2013-07-01 05:27:00,
2013-07-01 06:32:00,57.7,53.6,30.04,North,0,2.2,5.8,86,0.00,CLR,SKC,0.00,WeatherDisplay:10.37,2013-07-01 05:32:00,
2013-07-01 06:37:00,57.7,53.6,30.04,North,0,2.2,5.8,86,0.00,CLR,SKC,0.00,WeatherDisplay:10.37,2013-07-01 05:37:00,
2013-07-01 06:42:00,57.9,53.4,30.04,NW,315,1.6,3.8,85,0.00,CLR,SKC,0.00,WeatherDisplay:10.37,2013-07-01 05:42:00,
2013-07-01 06:47:00,57.9,53.4,30.04,NW,315,1.6,3.8,85,0.00,CLR,SKC,0.00,WeatherDisplay:10.37,2013-07-01 05:47:00,
2013-07-01 06:52:00,58.1,53.6,30.04,North,0,0.7,3.5,85,0.00,CLR,SKC,0.00,WeatherDisplay:10.37,2013-07-01 05:52:00,
2013-07-01 06:57:00,58.1,53.6,30.04,North,0,0.7,3.5,85,0.00,CLR,SKC,0.00,WeatherDisplay:10.37,2013-07-01 05:57:00,
2013-07-01 07:02:00,58.3,53.5,30.04,South,180,0.0,3.5,84,0.00,CLR,SKC,0.00,WeatherDisplay:10.37,2013-07-01 06:02:00,
2013-07-01 07:07:00,58.3,53.5,30.04,NE,45,1.6,4.6,84,0.00,CLR,SKC,0.00,WeatherDisplay:10.37,2013-07-01 06:07:00,
2013-07-01 07:12:00,58.3,53.5,30.04,North,0,1.6,3.5,84,0.00,CLR,SKC,0.00,WeatherDisplay:10.37,2013-07-01 06:12:00,
2013-07-01 07:17:00,58.3,53.5,30.04,North,0,1.6,3.5,84,0.00,CLR,SKC,0.00,WeatherDisplay:10.37,2013-07-01 06:17:00,
2013-07-01 07:22:00,58.5,53.3,30.04,WSW,248,1.6,3.8,83,0.00,CLR,SKC,0.00,WeatherDisplay:10.37,2013-07-01 06:22:00,
2013-07-01 07:27:00,58.5,53.3,30.04,WSW,248,1.6,3.8,83,0.00,CLR,SKC,0.00,WeatherDisplay:10.37,2013-07-01 06:27:00,
2013-07-01 07:32:00,58.8,53.7,30.04,NW,315,1.6,3.5,83,0.00,CLR,SKC,0.00,WeatherDisplay:10.37,2013-07-01 06:32:00,
2013-07-01 07:37:00,58.8,53.7,30.04,NW,315,1.6,3.5,83,0.00,CLR,SKC,0.00,WeatherDisplay:10.37,2013-07-01 06:37:00,
2013-07-01 07:42:00,59.0,53.5,30.04,NW,315,0.7,3.5,82,0.00,CLR,SKC,0.00,WeatherDisplay:10.37,2013-07-01 06:42:00,
2013-07-01 07:47:00,59.0,53.5,30.04,NW,315,0.7,3.5,82,0.00,CLR,SKC,0.00,WeatherDisplay:10.37,2013-07-01 06:47:00,
2013-07-01 07:52:00,59.2,53.7,30.04,West,270,0.7,8.1,82,0.00,CLR,SKC,0.00,WeatherDisplay:10.37,2013-07-01 06:52:00,
2013-07-01 07:57:00,59.2,53.7,30.04,West,270,0.7,8.1,82,0.00,CLR,SKC,0.00,WeatherDisplay:10.37,2013-07-01 06:57:00,
2013-07-01 08:02:00,59.5,53.7,30.04,North,0,1.6,3.8,81,0.00,CLR,SKC,0.00,WeatherDisplay:10.37,2013-07-01 07:02:00,
2013-07-01 08:07:00,59.7,53.9,30.05,North,0,0.7,3.5,81,0.00,CLR,SKC,0.00,WeatherDisplay:10.37,2013-07-01 07:07:00,
2013-07-01 08:12:00,59.7,53.9,30.04,West,270,0.7,5.8,81,0.00,CLR,SKC,0.00,WeatherDisplay:10.37,2013-07-01 07:12:00,
2013-07-01 08:17:00,59.7,53.9,30.04,West,270,0.7,5.8,81,0.00,CLR,SKC,0.00,WeatherDisplay:10.37,2013-07-01 07:17:00,
2013-07-01 08:22:00,60.1,53.5,30.04,NW,315,1.6,3.5,79,0.00,CLR,SKC,0.00,WeatherDisplay:10.37,2013-07-01 07:22:00,
2013-07-01 08:27:00,60.1,53.5,30.04,NW,315,1.6,3.5,79,0.00,CLR,SKC,0.00,WeatherDisplay:10.37,2013-07-01 07:27:00,
2013-07-01 08:32:00,60.4,53.5,30.04,NW,315,1.6,5.4,78,0.00,CLR,SKC,0.00,WeatherDisplay:10.37,2013-07-01 07:32:00,
2013-07-01 08:37:00,60.4,53.5,30.04,NW,315,1.6,5.4,78,0.00,CLR,SKC,0.00,WeatherDisplay:10.37,2013-07-01 07:37:00,
2013-07-01 08:42:00,60.8,53.5,30.04,West,270,0.7,6.9,77,0.00,CLR,SKC,0.00,WeatherDisplay:10.37,2013-07-01 07:42:00,
2013-07-01 08:47:00,60.8,53.5,30.04,West,270,0.7,6.9,77,0.00,CLR,SKC,0.00,WeatherDisplay:10.37,2013-07-01 07:47:00,
2013-07-01 08:52:00,61.3,53.7,30.04,SE,135,1.6,3.8,76,0.00,CLR,SKC,0.00,WeatherDisplay:10.37,2013-07-01 07:52:00,
2013-07-01 08:57:00,61.5,53.2,30.03,North,0,3.1,4.5,74,0.00,CLR,SKC,0.00,WeatherDisplay:10.37,2013-07-01 07:57:00,
2013-07-01 09:02:00,61.5,53.2,30.04,West,270,2.2,4.6,74,0.00,CLR,SKC,0.00,WeatherDisplay:10.37,2013-07-01 08:02:00,
2013-07-01 09:07:00,61.5,53.2,30.04,WNW,292,3.1,5.8,74,0.00,CLR,SKC,0.00,WeatherDisplay:10.37,2013-07-01 08:07:00,
2013-07-01 09:12:00,62.4,52.9,30.04,NE,45,0.7,4.6,71,0.00,CLR,SKC,0.00,WeatherDisplay:10.37,2013-07-01 08:12:00,
2013-07-01 09:17:00,62.4,52.9,30.04,NE,45,0.7,4.6,71,0.00,CLR,SKC,0.00,WeatherDisplay:10.37,2013-07-01 08:17:00,
2013-07-01 09:22:00,62.8,52.8,30.04,SE,135,0.7,5.8,70,0.00,CLR,SKC,0.00,WeatherDisplay:10.37,2013-07-01 08:22:00,
2013-07-01 09:27:00,62.8,52.8,30.04,SE,135,0.7,5.8,70,0.00,CLR,SKC,0.00,WeatherDisplay:10.37,2013-07-01 08:27:00,
2013-07-01 09:32:00,63.0,52.6,30.03,NW,315,1.6,5.8,69,0.00,CLR,SKC,0.00,WeatherDisplay:10.37,2013-07-01 08:32:00,
2013-07-01 09:37:00,63.0,52.6,30.03,NW,315,1.6,5.8,69,0.00,CLR,SKC,0.00,WeatherDisplay:10.37,2013-07-01 08:37:00,
2013-07-01 09:42:00,63.5,52.3,30.04,NW,315,1.6,5.8,67,0.00,CLR,SKC,0.00,WeatherDisplay:10.37,2013-07-01 08:42:00,
2013-07-01 09:47:00,63.5,52.3,30.04,NW,315,1.6,5.8,67,0.00,CLR,SKC,0.00,WeatherDisplay:10.37,2013-07-01 08:47:00,
2013-07-01 09:50:00,69.1,52.7,30.00,NNW,345,1.0,4.0,56,0.00,CLR,SKC,0.00,WeatherDisplay:10.37,2013-07-01 08:50:00,
2013-07-01 09:52:00,64.4,52.0,30.03,North,0,3.8,6.0,64,0.00,CLR,SKC,0.00,WeatherDisplay:10.37,2013-07-01 08:52:00,
2013-07-01 09:55:00,69.1,53.2,30.01,NNW,343,1.0,4.0,57,0.00,CLR,SKC,0.00,WeatherDisplay:10.37,2013-07-01 08:55:00,
2013-07-01 09:57:00,64.4,52.0,30.04,North,0,2.2,5.8,64,0.00,CLR,SKC,0.00,WeatherDisplay:10.37,2013-07-01 08:57:00,
2013-07-01 10:00:00,68.7,52.9,30.01,NNW,336,1.0,4.0,57,0.00,CLR,SKC,0.00,WeatherDisplay:10.37,2013-07-01 09:00:00,
2013-07-01 10:02:00,65.1,51.3,30.03,North,0,2.2,6.0,61,0.00,CLR,SKC,0.00,WeatherDisplay:10.37,2013-07-01 09:02:00,
2013-07-01 10:05:00,68.5,53.2,30.00,NNW,336,2.0,4.0,58,0.00,CLR,SKC,0.00,WeatherDisplay:10.37,2013-07-01 09:05:00,
2013-07-01 10:07:00,64.9,51.2,30.03,WNW,292,2.2,5.8,61,0.00,CLR,SKC,0.00,WeatherDisplay:10.37,2013-07-01 09:07:00,
2013-07-01 10:10:00,68.5,53.2,30.01,North,9,3.0,7.0,58,0.00,CLR,SKC,0.00,WeatherDisplay:10.37,2013-07-01 09:10:00,
2013-07-01 10:12:00,64.9,52.5,30.03,NW,315,0.7,8.1,64,0.00,CLR,SKC,0.00,WeatherDisplay:10.37,2013-07-01 09:12:00,
2013-07-01 10:15:00,69.4,53.5,30.00,NE,34,1.0,7.0,57,0.00,CLR,SKC,0.00,WeatherDisplay:10.37,2013-07-01 09:15:00,
2013-07-01 10:17:00,65.1,52.2,30.03,NW,315,3.1,6.0,63,0.00,CLR,SKC,0.00,WeatherDisplay:10.37,2013-07-01 09:17:00,
2013-07-01 10:20:00,70.3,53.4,30.00,ENE,57,2.0,6.0,55,0.00,CLR,SKC,0.00,WeatherDisplay:10.37,2013-07-01 09:20:00,
2013-07-01 10:22:00,66.0,53.1,30.03,NE,45,3.8,7.6,63,0.00,CLR,SKC,0.00,WeatherDisplay:10.37,2013-07-01 09:22:00,
2013-07-01 10:25:00,71.4,53.4,30.01,NE,54,2.0,5.0,53,0.00,CLR,SKC,0.00,WeatherDisplay:10.37,2013-07-01 09:25:00,
2013-07-01 10:27:00,66.0,53.1,30.03,NE,45,3.8,7.6,63,0.00,CLR,SKC,0.00,WeatherDisplay:10.37,2013-07-01 09:27:00,
2013-07-01 10:30:00,72.1,53.5,30.00,East,79,2.0,6.0,52,0.00,CLR,SKC,0.00,WeatherDisplay:10.37,2013-07-01 09:30:00,
2013-07-01 10:32:00,65.1,52.2,30.03,NE,45,2.2,6.9,63,0.00,CLR,SKC,0.00,WeatherDisplay:10.37,2013-07-01 09:32:00,
2013-07-01 10:35:00,72.1,53.0,30.00,NNW,337,2.0,6.0,51,0.00,CLR,SKC,0.00,WeatherDisplay:10.37,2013-07-01 09:35:00,
2013-07-01 10:37:00,65.1,52.2,30.03,NE,45,2.2,6.9,63,0.00,CLR,SKC,0.00,WeatherDisplay:10.37,2013-07-01 09:37:00,
2013-07-01 10:40:00,72.0,52.8,30.00,NNW,343,3.0,6.0,51,0.00,CLR,SKC,0.00,WeatherDisplay:10.37,2013-07-01 09:40:00,
2013-07-01 10:42:00,66.2,52.8,30.03,NW,315,1.6,6.9,62,0.00,CLR,SKC,0.00,WeatherDisplay:10.37,2013-07-01 09:42:00,
2013-07-01 10:45:00,72.7,53.0,30.01,North,354,3.0,6.0,50,0.00,CLR,SKC,0.00,WeatherDisplay:10.37,2013-07-01 09:45:00,
2013-07-01 10:47:00,66.2,52.8,30.03,NW,315,1.6,6.9,62,0.00,CLR,SKC,0.00,WeatherDisplay:10.37,2013-07-01 09:47:00,
2013-07-01 10:50:00,71.4,52.9,30.00,NNW,329,6.0,10.0,52,0.00,CLR,SKC,0.00,WeatherDisplay:10.37,2013-07-01 09:50:00,
2013-07-01 10:52:00,67.1,52.7,30.03,WNW,292,4.5,8.1,60,0.00,CLR,SKC,0.00,WeatherDisplay:10.37,2013-07-01 09:52:00,
2013-07-01 10:55:00,70.9,52.9,30.00,NNW,338,2.0,10.0,53,0.00,CLR,SKC,0.00,WeatherDisplay:10.37,2013-07-01 09:55:00,
2013-07-01 10:57:00,66.0,52.2,30.03,North,0,3.1,8.1,61,0.00,CLR,SKC,0.00,WeatherDisplay:10.37,2013-07-01 09:57:00,
2013-07-01 11:00:00,73.6,53.8,30.00,NNW,346,1.0,10.0,50,0.00,CLR,SKC,0.00,WeatherDisplay:10.37,2013-07-01 10:00:00,
2013-07-01 11:02:00,65.7,52.3,30.03,NW,315,3.1,6.9,62,0.00,CLR,SKC,0.00,WeatherDisplay:10.37,2013-07-01 10:02:00,
2013-07-01 11:05:00,74.8,53.3,30.00,NNW,336,2.0,4.0,47,0.00,CLR,SKC,0.00,WeatherDisplay:10.37,2013-07-01 10:05:00,
2013-07-01 11:07:00,65.7,51.8,30.03,WSW,248,0.7,6.9,61,0.00,CLR,SKC,0.00,WeatherDisplay:10.37,2013-07-01 10:07:00,
2013-07-01 11:10:00,73.2,51.8,30.00,North,354,3.0,7.0,47,0.00,CLR,SKC,0.00,WeatherDisplay:10.37,2013-07-01 10:10:00,
2013-07-01 11:12:00,66.2,52.3,30.03,NW,315,3.1,5.8,61,0.00,CLR,SKC,0.00,WeatherDisplay:10.37,2013-07-01 10:12:00,
2013-07-01 11:15:00,71.4,52.3,30.00,North,354,2.0,7.0,51,0.00,CLR,SKC,0.00,WeatherDisplay:10.37,2013-07-01 10:15:00,
2013-07-01 11:17:00,66.2,52.3,30.03,NW,315,1.6,5.8,61,0.00,CLR,SKC,0.00,WeatherDisplay:10.37,2013-07-01 10:17:00,
2013-07-01 11:20:00,70.5,53.1,30.00,North,358,0.0,5.0,54,0.00,CLR,SKC,0.00,WeatherDisplay:10.37,2013-07-01 10:20:00,
2013-07-01 11:23:00,66.0,52.6,30.03,NW,315,3.8,8.1,62,0.00,CLR,SKC,0.00,WeatherDisplay:10.37,2013-07-01 10:23:00,
2013-07-01 11:25:00,70.5,52.0,30.00,NNW,340,1.0,5.0,52,0.00,CLR,SKC,0.00,WeatherDisplay:10.37,2013-07-01 10:25:00,
2013-07-01 11:28:00,65.8,52.5,30.03,NW,315,1.6,6.9,62,0.00,CLR,SKC,0.00,WeatherDisplay:10.37,2013-07-01 10:28:00,
2013-07-01 11:30:00,69.8,52.4,29.99,NW,320,1.0,5.0,54,0.00,CLR,SKC,0.00,WeatherDisplay:10.37,2013-07-01 10:30:00,
2013-07-01 11:33:00,66.7,52.9,30.02,SE,135,1.6,3.8,61,0.00,CLR,SKC,0.00,WeatherDisplay:10.37,2013-07-01 10:33:00,
2013-07-01 11:35:00,69.6,52.2,29.99,NNW,338,1.0,5.0,54,0.00,CLR,SKC,0.00,WeatherDisplay:10.37,2013-07-01 10:35:00,
2013-07-01 11:38:00,67.1,52.3,30.02,NW,315,3.8,6.9,59,0.00,CLR,SKC,0.00,WeatherDisplay:10.37,2013-07-01 10:38:00,
2013-07-01 11:40:00,70.2,52.2,29.99,NNW,327,2.0,6.0,53,0.00,CLR,SKC,0.00,WeatherDisplay:10.37,2013-07-01 10:40:00,
2013-07-01 11:43:00,68.7,52.4,30.02,NE,45,2.2,8.1,56,0.00,CLR,SKC,0.00,WeatherDisplay:10.37,2013-07-01 10:43:00,
2013-07-01 11:45:00,72.1,53.0,29.99,WNW,291,1.0,6.0,51,0.00,CLR,SKC,0.00,WeatherDisplay:10.37,2013-07-01 10:45:00,
2013-07-01 11:48:00,68.7,52.4,30.02,NE,45,2.2,8.1,56,0.00,CLR,SKC,0.00,WeatherDisplay:10.37,2013-07-01 10:48:00,
2013-07-01 11:50:00,73.2,52.9,29.99,NW,314,2.0,5.0,49,0.00,CLR,SKC,0.00,WeatherDisplay:10.37,2013-07-01 10:50:00,
2013-07-01 11:53:00,69.3,52.9,30.02,East,90,1.6,8.1,56,0.00,CLR,SKC,0.00,WeatherDisplay:10.37,2013-07-01 10:53:00,
2013-07-01 11:55:00,72.9,52.6,29.99,NW,304,1.0,4.0,49,0.00,CLR,SKC,0.00,WeatherDisplay:10.37,2013-07-01 10:55:00,
2013-07-01 11:58:00,69.8,52.9,30.03,NE,45,1.6,8.1,55,0.00,CLR,SKC,0.00,WeatherDisplay:10.37,2013-07-01 10:58:00,
2013-07-01 12:00:00,73.4,53.1,29.99,WNW,285,0.0,6.0,49,0.00,CLR,SKC,0.00,WeatherDisplay:10.37,2013-07-01 11:00:00,
2013-07-01 12:03:00,70.0,53.1,30.01,West,270,0.0,5.8,55,0.00,CLR,SKC,0.00,WeatherDisplay:10.37,2013-07-01 11:03:00,
2013-07-01 12:05:00,72.5,52.2,30.00,NNW,327,3.0,6.0,49,0.00,CLR,SKC,0.00,WeatherDisplay:10.37,2013-07-01 11:05:00,
2013-07-01 12:08:00,69.4,53.1,30.02,NW,315,5.4,9.2,56,0.00,CLR,SKC,0.00,WeatherDisplay:10.37,2013-07-01 11:08:00,
2013-07-01 12:10:00,71.4,51.8,29.99,North,351,2.0,5.0,50,0.00,CLR,SKC,0.00,WeatherDisplay:10.37,2013-07-01 11:10:00,
2013-07-01 12:13:00,68.9,53.0,30.02,WSW,248,2.2,9.2,57,0.00,CLR,SKC,0.00,WeatherDisplay:10.37,2013-07-01 11:13:00,
2013-07-01 12:15:00,71.8,52.7,29.99,North,359,1.0,5.0,51,0.00,CLR,SKC,0.00,WeatherDisplay:10.37,2013-07-01 11:15:00,
2013-07-01 12:18:00,68.0,53.1,30.02,NNW,338,1.6,8.1,59,0.00,CLR,SKC,0.00,WeatherDisplay:10.37,2013-07-01 11:18:00,
2013-07-01 12:20:00,73.4,52.5,29.99,North,350,2.0,5.0,48,0.00,CLR,SKC,0.00,WeatherDisplay:10.37,2013-07-01 11:20:00,
2013-07-01 12:23:00,68.2,53.3,30.01,North,0,1.6,4.6,59,0.00,CLR,SKC,0.00,WeatherDisplay:10.37,2013-07-01 11:23:00,
2013-07-01 12:25:00,73.6,51.5,30.00,North,353,1.0,4.0,46,0.00,CLR,SKC,0.00,WeatherDisplay:10.37,2013-07-01 11:25:00,
2013-07-01 12:28:00,68.2,53.3,30.01,WNW,292,3.8,6.9,59,0.00,CLR,SKC,0.00,WeatherDisplay:10.37,2013-07-01 11:28:00,
2013-07-01 12:30:00,73.6,51.5,29.99,North,0,3.0,6.0,46,0.00,CLR,SKC,0.00,WeatherDisplay:10.37,2013-07-01 11:30:00,
2013-07-01 12:33:00,68.9,53.5,30.01,North,0,0.0,2.3,58,0.00,CLR,SKC,0.00,WeatherDisplay:10.37,2013-07-01 11:33:00,
2013-07-01 12:38:00,69.8,53.4,30.01,North,0,0.7,2.3,56,0.00,CLR,SKC,0.00,WeatherDisplay:10.37,2013-07-01 11:38:00,
2013-07-01 12:40:00,73.2,51.8,29.99,North,2,3.0,7.0,47,0.00,CLR,SKC,0.00,WeatherDisplay:10.37,2013-07-01 11:40:00,
2013-07-01 12:43:00,70.0,52.6,30.01,SE,135,1.6,4.6,54,0.00,CLR,SKC,0.00,WeatherDisplay:10.37,2013-07-01 11:43:00,
2013-07-01 12:45:00,72.9,51.4,29.99,North,2,2.0,7.0,47,0.00,CLR,SKC,0.00,WeatherDisplay:10.37,2013-07-01 11:45:00,
2013-07-01 12:48:00,70.0,52.6,30.01,NW,315,2.2,6.0,54,0.00,CLR,SKC,0.00,WeatherDisplay:10.37,2013-07-01 11:48:00,
2013-07-01 12:53:00,69.8,52.9,30.01,NW,315,2.2,5.8,55,0.00,CLR,SKC,0.00,WeatherDisplay:10.37,2013-07-01 11:53:00,
2013-07-01 12:58:00,69.4,52.6,30.01,North,0,5.4,8.1,55,0.00,CLR,SKC,0.00,WeatherDisplay:10.37,2013-07-01 11:58:00,
2013-07-01 13:03:00,69.6,52.7,30.01,WSW,248,3.1,8.1,55,0.00,CLR,SKC,0.00,WeatherDisplay:10.37,2013-07-01 12:03:00,
2013-07-01 13:08:00,69.6,52.7,30.01,WSW,248,3.1,8.1,55,0.00,CLR,SKC,0.00,WeatherDisplay:10.37,2013-07-01 12:08:00,
2013-07-01 13:13:00,70.2,52.7,30.01,North,0,2.2,4.6,54,0.00,CLR,SKC,0.00,WeatherDisplay:10.37,2013-07-01 12:13:00,
2013-07-01 13:18:00,70.2,52.7,30.00,North,0,2.2,6.9,54,0.00,CLR,SKC,0.00,WeatherDisplay:10.37,2013-07-01 12:18:00,
2013-07-01 13:23:00,70.2,52.7,30.01,NW,315,1.6,8.1,54,0.00,CLR,SKC,0.00,WeatherDisplay:10.37,2013-07-01 12:23:00,
2013-07-01 13:28:00,69.8,53.4,30.00,West,270,1.6,8.1,56,0.00,CLR,SKC,0.00,WeatherDisplay:10.37,2013-07-01 12:28:00,
2013-07-01 13:33:00,70.0,53.6,30.00,NW,315,0.7,3.1,56,0.00,CLR,SKC,0.00,WeatherDisplay:10.37,2013-07-01 12:33:00,
2013-07-01 13:38:00,69.8,52.9,30.00,North,0,2.2,6.0,55,0.00,CLR,SKC,0.00,WeatherDisplay:10.37,2013-07-01 12:38:00,
2013-07-01 13:43:00,69.4,52.6,30.00,North,0,5.4,10.4,55,0.00,CLR,SKC,0.00,WeatherDisplay:10.37,2013-07-01 12:43:00,
2013-07-01 13:48:00,69.3,53.4,30.00,East,90,0.7,10.4,57,0.00,CLR,SKC,0.00,WeatherDisplay:10.37,2013-07-01 12:48:00,
2013-07-01 13:53:00,69.3,52.9,30.00,NW,315,3.1,4.5,56,0.00,CLR,SKC,0.00,WeatherDisplay:10.37,2013-07-01 12:53:00,
2013-07-01 13:58:00,69.1,53.2,30.00,NE,45,3.8,7.6,57,0.00,CLR,SKC,0.00,WeatherDisplay:10.37,2013-07-01 12:58:00,
2013-07-01 14:03:00,68.9,53.0,30.00,North,0,0.7,10.4,57,0.00,CLR,SKC,0.00,WeatherDisplay:10.37,2013-07-01 13:03:00,
2013-07-01 14:08:00,68.9,53.0,30.00,NW,315,0.0,10.4,57,0.00,CLR,SKC,0.00,WeatherDisplay:10.37,2013-07-01 13:08:00,
2013-07-01 14:13:00,68.7,52.9,30.00,NW,315,0.0,5.8,57,0.00,CLR,SKC,0.00,WeatherDisplay:10.37,2013-07-01 13:13:00,
2013-07-01 14:18:00,69.3,52.9,30.00,North,0,1.6,5.8,56,0.00,CLR,SKC,0.00,WeatherDisplay:10.37,2013-07-01 13:18:00,
2013-07-01 14:23:00,69.3,52.9,30.00,North,0,2.2,8.1,56,0.00,CLR,SKC,0.00,WeatherDisplay:10.37,2013-07-01 13:23:00,
2013-07-01 14:28:00,69.8,53.4,30.00,East,90,0.0,5.8,56,0.00,CLR,SKC,0.00,WeatherDisplay:10.37,2013-07-01 13:28:00,
2013-07-01 14:33:00,69.8,52.9,30.00,NW,315,1.6,4.6,55,0.00,CLR,SKC,0.00,WeatherDisplay:10.37,2013-07-01 13:33:00,
2013-07-01 14:38:00,69.4,53.1,30.00,West,270,1.6,6.0,56,0.00,CLR,SKC,0.00,WeatherDisplay:10.37,2013-07-01 13:38:00,
2013-07-01 14:43:00,69.4,53.1,30.00,NW,315,2.2,5.8,56,0.00,CLR,SKC,0.00,WeatherDisplay:10.37,2013-07-01 13:43:00,
2013-07-01 14:48:00,68.9,53.0,30.00,NE,45,1.6,8.1,57,0.00,CLR,SKC,0.00,WeatherDisplay:10.37,2013-07-01 13:48:00,
2013-07-01 14:53:00,68.9,53.0,30.00,NE,45,0.7,4.6,57,0.00,CLR,SKC,0.00,WeatherDisplay:10.37,2013-07-01 13:53:00,
2013-07-01 14:58:00,69.1,52.7,30.00,North,0,1.6,5.8,56,0.00,CLR,SKC,0.00,WeatherDisplay:10.37,2013-07-01 13:58:00,
2013-07-01 15:03:00,69.1,53.2,30.00,NW,315,1.6,4.6,57,0.00,CLR,SKC,0.00,WeatherDisplay:10.37,2013-07-01 14:03:00,
2013-07-01 16:40:00,64.6,50.8,29.99,NNW,330,0.0,2.0,61,0.00,CLR,SKC,0.00,WeatherDisplay:10.37,2013-07-01 15:40:00,
2013-07-01 16:45:00,64.6,50.4,30.00,NW,313,1.0,2.0,60,0.00,CLR,SKC,0.00,WeatherDisplay:10.37,2013-07-01 15:45:00,
2013-07-01 16:50:00,64.4,50.7,30.00,WNW,299,0.0,2.0,61,0.00,CLR,SKC,0.00,WeatherDisplay:10.37,2013-07-01 15:50:00,
2013-07-01 16:55:00,64.4,50.7,30.00,SSE,160,0.0,2.0,61,0.00,CLR,SKC,0.00,WeatherDisplay:10.37,2013-07-01 15:55:00,
2013-07-01 17:36:00,73.6,51.5,29.99,NE,45,1.6,9.8,46,0.00,CLR,SKC,0.00,WeatherDisplay:10.37,2013-07-01 16:36:00,
2013-07-01 17:41:00,73.2,51.2,29.99,North,0,3.8,9.8,46,0.00,CLR,SKC,0.00,WeatherDisplay:10.37,2013-07-01 16:41:00,
2013-07-01 17:46:00,73.2,51.2,29.99,North,0,3.8,9.8,46,0.00,CLR,SKC,0.00,WeatherDisplay:10.37,2013-07-01 16:46:00,
2013-07-01 17:51:00,72.9,51.4,30.00,NW,315,3.8,7.6,47,0.00,CLR,SKC,0.00,WeatherDisplay:10.37,2013-07-01 16:51:00,
2013-07-01 17:56:00,72.9,51.4,30.00,NW,315,3.8,7.6,47,0.00,CLR,SKC,0.00,WeatherDisplay:10.37,2013-07-01 16:56:00,
2013-07-01 18:01:00,73.0,51.6,29.99,NW,315,2.2,8.3,47,0.00,CLR,SKC,0.00,WeatherDisplay:10.37,2013-07-01 17:01:00,
2013-07-01 18:06:00,73.0,51.6,29.99,NW,315,2.2,8.3,47,0.00,CLR,SKC,0.00,WeatherDisplay:10.37,2013-07-01 17:06:00,
2013-07-01 18:11:00,73.2,51.2,29.99,NW,315,1.6,5.8,46,0.00,CLR,SKC,0.00,WeatherDisplay:10.37,2013-07-01 17:11:00,
2013-07-01 18:16:00,73.2,51.2,29.99,NW,315,1.6,5.8,46,0.00,CLR,SKC,0.00,WeatherDisplay:10.37,2013-07-01 17:16:00,
2013-07-01 18:21:00,71.2,51.6,29.99,North,0,0.7,4.6,50,0.00,CLR,SKC,0.00,WeatherDisplay:10.37,2013-07-01 17:21:00,
2013-07-01 18:26:00,71.2,51.6,29.99,North,0,0.7,4.6,50,0.00,CLR,SKC,0.00,WeatherDisplay:10.37,2013-07-01 17:26:00,
2013-07-01 18:31:00,70.7,51.7,29.99,North,0,2.2,5.8,51,0.00,CLR,SKC,0.00,WeatherDisplay:10.37,2013-07-01 17:31:00,
2013-07-01 18:36:00,70.7,51.7,29.99,North,0,2.2,5.8,51,0.00,CLR,SKC,0.00,WeatherDisplay:10.37,2013-07-01 17:36:00,
2013-07-01 18:41:00,70.2,51.7,29.99,NW,315,1.6,3.5,52,0.00,CLR,SKC,0.00,WeatherDisplay:10.37,2013-07-01 17:41:00,
2013-07-01 18:46:00,70.2,51.7,29.99,NW,315,1.6,3.5,52,0.00,CLR,SKC,0.00,WeatherDisplay:10.37,2013-07-01 17:46:00,
2013-07-01 18:51:00,69.3,50.9,29.99,WSW,248,0.7,2.3,52,0.00,CLR,SKC,0.00,WeatherDisplay:10.37,2013-07-01 17:51:00,
2013-07-01 18:56:00,69.3,50.9,29.99,WSW,248,0.7,2.3,52,0.00,CLR,SKC,0.00,WeatherDisplay:10.37,2013-07-01 17:56:00,
2013-07-01 19:01:00,73.9,53.0,29.99,NW,315,3.1,6.0,48,0.00,CLR,SKC,0.00,WeatherDisplay:10.37,2013-07-01 18:01:00,
2013-07-01 19:06:00,73.9,53.0,29.99,NW,315,3.1,6.0,48,0.00,CLR,SKC,0.00,WeatherDisplay:10.37,2013-07-01 18:06:00,
2013-07-01 19:11:00,72.7,52.4,29.99,NNW,338,1.6,5.4,49,0.00,CLR,SKC,0.00,WeatherDisplay:10.37,2013-07-01 18:11:00,
2013-07-01 19:16:00,72.7,52.4,29.99,NNW,338,1.6,5.4,49,0.00,CLR,SKC,0.00,WeatherDisplay:10.37,2013-07-01 18:16:00,
2013-07-01 19:21:00,70.5,52.0,29.99,NW,315,0.0,3.5,52,0.00,CLR,SKC,0.00,WeatherDisplay:10.37,2013-07-01 18:21:00,
2013-07-01 19:26:00,70.5,52.0,29.99,NW,315,0.0,3.5,52,0.00,CLR,SKC,0.00,WeatherDisplay:10.37,2013-07-01 18:26:00,
2013-07-01 19:31:00,68.4,51.1,29.99,NE,45,0.0,1.1,54,0.00,CLR,SKC,0.00,WeatherDisplay:10.37,2013-07-01 18:31:00,
2013-07-01 19:36:00,68.4,51.1,29.99,NE,45,0.0,1.1,54,0.00,CLR,SKC,0.00,WeatherDisplay:10.37,2013-07-01 18:36:00,
2013-07-01 19:39:00,67.8,51.5,29.99,North,0,0.0,0.0,56,0.00,CLR,SKC,0.00,WeatherDisplay:10.37,2013-07-01 18:39:00,
2013-07-01 19:41:00,67.8,51.5,29.99,North,0,0.0,0.0,56,0.00,CLR,SKC,0.00,WeatherDisplay:10.37,2013-07-01 18:41:00,
2013-07-01 19:46:00,67.8,51.5,29.99,North,0,0.0,0.0,56,0.00,CLR,SKC,0.00,WeatherDisplay:10.37,2013-07-01 18:46:00,
2013-07-01 19:54:00,67.8,50.6,29.98,NW,315,2.2,7.6,54,0.00,CLR,SKC,0.00,WeatherDisplay:10.37,2013-07-01 18:54:00,
2013-07-01 19:59:00,67.8,50.6,29.98,NW,315,0.0,1.1,54,0.00,CLR,SKC,0.00,WeatherDisplay:10.37,2013-07-01 18:59:00,
2013-07-01 20:04:00,67.8,50.6,29.98,NW,315,0.0,1.1,54,0.00,CLR,SKC,0.00,WeatherDisplay:10.37,2013-07-01 19:04:00,
2013-07-01 20:09:00,67.5,50.7,29.98,NE,45,0.0,2.3,55,0.00,CLR,SKC,0.00,WeatherDisplay:10.37,2013-07-01 19:09:00,
2013-07-01 20:14:00,67.5,50.7,29.99,NE,45,0.0,1.1,55,0.00,CLR,SKC,0.00,WeatherDisplay:10.37,2013-07-01 19:14:00,
2013-07-01 20:19:00,67.1,50.4,29.99,North,0,0.7,3.1,55,0.00,CLR,SKC,0.00,WeatherDisplay:10.37,2013-07-01 19:19:00,
2013-07-01 20:24:00,67.1,50.4,29.99,North,0,0.0,3.5,55,0.00,CLR,SKC,0.00,WeatherDisplay:10.37,2013-07-01 19:24:00,
2013-07-01 20:29:00,66.7,50.5,29.98,SE,135,0.0,1.1,56,0.00,CLR,SKC,0.00,WeatherDisplay:10.37,2013-07-01 19:29:00,
2013-07-01 20:34:00,66.7,50.5,29.98,SE,135,0.0,1.1,56,0.00,CLR,SKC,0.00,WeatherDisplay:10.37,2013-07-01 19:34:00,
2013-07-01 20:39:00,66.4,49.7,29.98,NW,315,0.0,1.6,55,0.00,CLR,SKC,0.00,WeatherDisplay:10.37,2013-07-01 19:39:00,
2013-07-01 20:44:00,66.4,49.7,29.98,NW,315,0.0,1.6,55,0.00,CLR,SKC,0.00,WeatherDisplay:10.37,2013-07-01 19:44:00,
2013-07-01 20:49:00,66.2,50.0,29.98,West,270,0.0,1.1,56,0.00,CLR,SKC,0.00,WeatherDisplay:10.37,2013-07-01 19:49:00,
2013-07-01 20:54:00,66.2,50.0,29.98,West,270,0.0,1.1,56,0.00,CLR,SKC,0.00,WeatherDisplay:10.37,2013-07-01 19:54:00,
2013-07-01 20:59:00,65.7,50.5,29.99,NW,315,0.0,2.3,58,0.00,CLR,SKC,0.00,WeatherDisplay:10.37,2013-07-01 19:59:00,
2013-07-01 21:04:00,65.7,50.5,29.99,West,270,0.0,2.3,58,0.00,CLR,SKC,0.00,WeatherDisplay:10.37,2013-07-01 20:04:00,
2013-07-01 21:09:00,65.3,50.6,29.98,West,270,0.0,2.3,59,0.00,CLR,SKC,0.00,WeatherDisplay:10.37,2013-07-01 20:09:00,
2013-07-01 21:14:00,65.3,50.6,29.99,NW,315,0.0,2.3,59,0.00,CLR,SKC,0.00,WeatherDisplay:10.37,2013-07-01 20:14:00,
2013-07-01 21:20:00,65.1,50.9,29.99,North,0,0.0,1.1,60,0.00,CLR,SKC,0.00,WeatherDisplay:10.37,2013-07-01 20:20:00,
2013-07-01 21:25:00,65.1,50.9,29.99,North,0,0.0,1.1,60,0.00,CLR,SKC,0.00,WeatherDisplay:10.37,2013-07-01 20:25:00,
2013-07-01 21:30:00,64.8,50.5,29.99,North,0,0.0,1.6,60,0.00,CLR,SKC,0.00,WeatherDisplay:10.37,2013-07-01 20:30:00,
2013-07-01 21:35:00,64.8,50.5,29.99,North,0,0.0,1.6,60,0.00,CLR,SKC,0.00,WeatherDisplay:10.37,2013-07-01 20:35:00,
2013-07-01 21:40:00,64.6,50.4,29.99,NW,315,0.0,1.6,60,0.00,CLR,SKC,0.00,WeatherDisplay:10.37,2013-07-01 20:40:00,
2013-07-01 21:45:00,64.6,50.4,29.99,NW,315,0.0,1.6,60,0.00,CLR,SKC,0.00,WeatherDisplay:10.37,2013-07-01 20:45:00,
2013-07-01 22:00:00,64.4,50.2,30.00,NW,315,0.0,2.2,60,0.00,CLR,SKC,0.00,WeatherDisplay:10.37,2013-07-01 21:00:00,
2013-07-01 22:05:00,64.4,50.2,30.00,NW,315,0.0,2.2,60,0.00,CLR,SKC,0.00,WeatherDisplay:10.37,2013-07-01 21:05:00,
2013-07-01 22:10:00,64.2,50.5,30.00,North,0,1.6,3.8,61,0.00,CLR,SKC,0.00,WeatherDisplay:10.37,2013-07-01 21:10:00,
2013-07-01 22:15:00,64.2,50.5,30.00,North,0,1.6,3.8,61,0.00,CLR,SKC,0.00,WeatherDisplay:10.37,2013-07-01 21:15:00,
2013-07-01 22:20:00,64.0,50.8,30.00,North,0,0.0,1.1,62,0.00,CLR,SKC,0.00,WeatherDisplay:10.37,2013-07-01 21:20:00,
2013-07-01 22:25:00,64.0,50.8,30.00,North,0,0.0,1.1,62,0.00,CLR,SKC,0.00,WeatherDisplay:10.37,2013-07-01 21:25:00,
2013-07-01 22:30:00,63.7,50.8,29.99,East,90,0.0,1.1,63,0.00,CLR,SKC,0.00,WeatherDisplay:10.37,2013-07-01 21:30:00,
2013-07-01 22:35:00,63.7,50.8,29.99,East,90,0.0,1.1,63,0.00,CLR,SKC,0.00,WeatherDisplay:10.37,2013-07-01 21:35:00,
2013-07-01 22:40:00,63.3,50.5,29.99,NNE,19,1.0,3.0,63,0.00,CLR,SKC,0.00,WeatherDisplay:10.37,2013-07-01 21:40:00,
2013-07-01 22:45:00,63.3,50.9,29.99,NNW,338,0.7,3.5,64,0.00,CLR,SKC,0.00,WeatherDisplay:10.37,2013-07-01 21:45:00,
2013-07-01 22:50:00,63.1,50.8,29.99,East,90,0.0,2.3,64,0.00,CLR,SKC,0.00,WeatherDisplay:10.37,2013-07-01 21:50:00,
2013-07-01 22:55:00,63.1,50.8,29.99,East,90,0.0,2.3,64,0.00,CLR,SKC,0.00,WeatherDisplay:10.37,2013-07-01 21:55:00,
2013-07-01 23:00:00,62.8,50.5,29.99,NNE,14,0.0,0.0,64,0.00,CLR,SKC,0.00,WeatherDisplay:10.37,2013-07-01 22:00:00,
2013-07-01 23:05:00,62.8,50.4,29.99,South,180,0.0,0.0,64,0.00,CLR,SKC,0.00,WeatherDisplay:10.37,2013-07-01 22:05:00,
2013-07-01 23:10:00,62.6,50.7,29.99,NNE,30,0.0,3.0,65,0.00,CLR,SKC,0.00,WeatherDisplay:10.37,2013-07-01 22:10:00,
2013-07-01 23:15:00,62.6,50.7,29.99,North,0,0.7,3.5,65,0.00,CLR,SKC,0.00,WeatherDisplay:10.37,2013-07-01 22:15:00,
2013-07-01 23:20:00,62.4,50.9,29.99,NW,315,0.0,2.3,66,0.00,CLR,SKC,0.00,WeatherDisplay:10.37,2013-07-01 22:20:00,
2013-07-01 23:25:00,62.4,50.9,29.99,NW,315,0.0,2.3,66,0.00,CLR,SKC,0.00,WeatherDisplay:10.37,2013-07-01 22:25:00,
2013-07-01 23:30:00,62.1,51.0,29.99,North,0,0.0,1.6,67,0.00,CLR,SKC,0.00,WeatherDisplay:10.37,2013-07-01 22:30:00,
2013-07-01 23:35:00,62.1,51.0,29.99,North,0,0.0,1.6,67,0.00,CLR,SKC,0.00,WeatherDisplay:10.37,2013-07-01 22:35:00,
2013-07-01 23:40:00,61.7,50.6,29.99,NW,315,0.7,2.3,67,0.00,CLR,SKC,0.00,WeatherDisplay:10.37,2013-07-01 22:40:00,
2013-07-01 23:45:00,61.7,50.6,29.99,NW,315,0.7,2.3,67,0.00,CLR,SKC,0.00,WeatherDisplay:10.37,2013-07-01 22:45:00,
2013-07-01 23:50:00,61.5,50.9,29.99,NW,315,0.0,2.3,68,0.00,CLR,SKC,0.00,WeatherDisplay:10.37,2013-07-01 22:50:00,
2013-07-01 23:55:00,61.5,50.9,29.99,NW,315,0.0,2.3,68,0.00,CLR,SKC,0.00,WeatherDisplay:10.37,2013-07-01 22:55:00,